Location: Saint Francis Village
(32.6154°N, 97.4559°W)
Time: 10:25:15
(UTC+00:00)

Hubble Space Telescope - Visible Passes

Search period start: 10 October 2024 00:00
Search period end: 20 October 2024 00:00
Orbit: 503 x 507 km, 28.5° (Epoch: 09 October)

Date Brightness Start Highest point End Pass type
(mag) Time Alt. Az. Time Alt. Az. Time Alt. Az.
14 Oct 3.0 01:33:14 10° SSW 01:34:22 13° S 01:34:22 13° S visible
15 Oct 2.6 01:11:27 10° SSW 01:13:55 16° SSE 01:14:17 16° SSE visible
16 Oct 2.5 00:49:42 10° SSW 00:52:22 18° SSE 00:54:07 14° SE visible
16 Oct 3.8 02:28:42 10° WSW 02:28:46 10° WSW 02:28:46 10° WSW visible
17 Oct 2.5 00:27:57 10° SSW 00:30:47 19° SSE 00:33:38 10° ESE visible
17 Oct 3.0 02:07:07 10° WSW 02:08:31 20° SW 02:08:31 20° SW visible
18 Oct 1.9 01:45:31 10° WSW 01:48:12 33° SSW 01:48:12 33° SSW visible
19 Oct 1.2 01:23:53 10° WSW 01:27:37 42° S 01:27:49 42° SSE visible
